Location: USNO
(38.9242°N, 77.0663°W)
Time: 14:19:44
(UTC-04:00)

Vanguard 2 Rocket - Visible Passes

Search period start: 18 July 2018 00:00
Search period end: 28 July 2018 00:00
Orbit: 554 x 3327 km, 32.9° (Epoch: 17 July)

Date Brightness Start Highest point End Pass type
(mag) Time Alt. Az. Time Alt. Az. Time Alt. Az.
18 Jul 7.9 03:54:26 29° SSW 03:57:23 43° SSE 04:07:32 10° E visible
19 Jul 8.2 02:58:17 29° SE 02:58:17 29° SE 03:05:34 10° E visible
19 Jul 8.2 05:04:05 11° WSW 05:11:06 60° S 05:23:57 10° E visible
20 Jul 9.1 02:02:08 13° ESE 02:02:08 13° ESE 02:03:33 10° ESE visible
20 Jul 7.8 04:07:56 28° SW 04:11:22 51° SSE 04:21:50 10° E visible
21 Jul 7.6 03:11:49 38° SSE 03:12:02 38° SSE 03:20:04 10° E visible
21 Jul 8.1 05:18:16 10° WSW 05:25:19 61° S 05:38:03 10° ESE visible
22 Jul 8.7 02:15:42 19° ESE 02:15:42 19° ESE 02:18:37 10° E visible
22 Jul 7.7 04:21:31 24° WSW 04:25:32 56° S 04:36:02 10° E visible
23 Jul 7.2 03:25:25 45° S 03:26:05 47° SSE 03:34:24 10° E visible
24 Jul 8.3 02:29:22 25° ESE 02:29:22 25° ESE 02:33:11 10° E visible
24 Jul 7.6 04:35:11 19° WSW 04:39:47 56° S 04:50:09 10° ESE visible
25 Jul 7.1 03:39:10 46° SSW 03:40:16 51° S 03:48:38 10° E visible
26 Jul 8.0 02:43:11 31° ESE 02:43:11 31° ESE 02:47:33 10° E visible
26 Jul 7.7 04:49:00 15° WSW 04:54:03 51° S 05:04:07 10° ESE visible
27 Jul 7.1 03:53:04 41° SW 03:54:32 50° S 04:02:46 10° ESE visible
